User: anonymous   Login
Location: Pleiades Observatory
(40.1297°N, 91.5238°W)
Time: 22:40:47
(UTC-06:00)
Language:

Cosmos 1842 Rocket - Orbit

View from above orbital plane
View from above orbital plane
View from above satellite
View from above satellite

Ground track
Ground track

The orbit data is extracted from the following two-line orbital elements,

1 17912U 87038B   16039.89150957 +.00000245 +00000-0 +27236-4 0  9994
2 17912 082.5044 154.1084 0021597 060.6118 299.7250 14.82832035533397
Epoch (UTC): 08 February 2016 21:23:46
Eccentricity: 0.0021597
inclination: 82.5044°
perigee height: 605 km
apogee height: 635 km
right ascension of ascending node: 154.1084°
argument of perigee: 60.6118°
revolutions per day: 14.82832035
mean anomaly at epoch: 299.7250°
orbit number at epoch: 53339

The dashed part of the orbit path shows where the satellite is in the earth's shadow,  

DLR